Location: Morton
(47.1103°N, 0.0222°W)
Time: 06:27:22
(UTC+00:00)

Daily predictions for brighter satellites

Satellite Brightness Start Highest point End
(mag) Time Altitude Azimuth Time Altitude Azimuth Time Altitude Azimuth
SL-08 RB Rocket 3.8 19:34:49 10° SSE 19:39:28 88° WSW 19:44:11 10° NNW
Cosmos 921 Rocket 3.8 19:36:49 10° N 19:40:38 32° ENE 19:44:25 10° SE
Cosmos 2123 Rocket 4.4 19:36:09 10° N 19:42:09 47° ENE 19:48:10 10° SSE
Meteor 1-27 Rocket 3.9 19:41:33 10° N 19:47:32 79° ENE 19:53:28 10° SSE
ARGOS 4.0 19:48:17 10° S 19:53:31 53° W 19:58:47 10° NNW
Cosmos 1707 Rocket 3.5 19:49:13 10° N 19:53:35 84° E 19:57:54 10° S
CZ-2C R/B 2.6 19:49:30 10° NNE 19:54:42 71° ESE 19:59:56 10° S
NOSS 3-2 (A) 3.4 19:49:44 10° SSW 19:55:16 58° ESE 20:01:35 10° NE
Cosmos 192 4.4 19:51:09 10° NNW 19:56:04 71° ENE 20:00:57 10° SSE
USA 267 4.2 19:54:08 10° ENE 19:59:01 22° SE 20:03:53 10° S
SL-16 R/B 3.0 19:56:21 10° NNW 20:01:36 36° NE 20:06:27 12° ESE
SL-4 R/B 2.7 19:57:50 10° W 20:01:49 51° NNW 20:05:31 10° ENE
BREEZE-M DEB (TANK) 2.2 20:00:33 10° W 20:02:58 73° N 20:08:08 10° ENE
MONITOR-E 3.5 20:01:14 10° S 20:03:34 79° WSW 20:05:55 10° NNW
BREEZE-M DEB (TANK) 4.2 19:58:59 10° WNW 20:03:34 21° WSW 20:06:04 10° S
SL-27 R/B 4.1 20:04:28 13° ESE 20:05:21 14° E 20:07:11 10° ENE
NOSS 3-2 (C) 3.7 20:00:43 10° S 20:06:02 44° ESE 20:12:03 10° NE
Cosmos 1470 Rocket 4.1 20:02:50 10° SSE 20:06:55 39° E 20:11:00 10° NNE
Sich 1 3.6 20:03:17 10° SSW 20:07:41 64° W 20:12:07 10° N
BREEZE-M DEB (TANK) 2.5 20:07:18 10° W 20:10:37 52° N 20:12:31 10° ENE
Cosmos 2082 Rocket 2.4 20:05:00 10° SSW 20:10:42 79° WNW 20:16:24 10° NNE
MetOp-A 4.4 20:05:45 10° S 20:11:05 72° WSW 20:16:28 10° NNW
USA 186 3.9 20:10:54 10° SW 20:12:27 17° W 20:14:01 10° NW
Meteor 2-20 Rocket 4.5 20:08:45 10° N 20:14:57 72° E 20:21:04 10° SSE
Meteor 1-4 Rocket 2.8 20:14:09 10° NNW 20:17:35 63° W 20:20:59 10° S
Cosmos 2322 Rocket 2.9 20:13:37 10° NNW 20:18:59 40° NE 20:23:14 15° ESE
ERS-1 Rocket 4.4 20:16:14 13° ESE 20:19:24 22° ENE 20:23:12 10° NNE
H-2A R/B 4.3 20:15:40 10° SW 20:19:42 24° W 20:23:42 10° NW
Cosmos 2278 4.4 20:14:46 10° NW 20:20:20 54° WSW 20:25:51 10° S
Cosmos 1862 Rocket 3.5 20:16:56 10° N 20:21:24 81° E 20:25:47 10° SSE
Cosmos 1850 Rocket 4.4 20:18:30 10° S 20:23:26 41° ESE 20:28:20 10° NE
Meteor 1-25 Rocket 4.3 20:19:57 10° S 20:25:25 60° E 20:30:59 10° NNE
Cosmos 676 Rocket 4.2 20:20:53 10° SSW 20:26:13 79° WNW 20:31:35 10° NNE
Cosmos 841 Rocket 4.5 20:21:51 10° N 20:26:35 33° ENE 20:29:56 17° ESE
SPOT 1/Viking Rocket 4.3 20:23:32 16° SE 20:27:09 37° ENE 20:31:54 10° N
Cosmos 2360 Rocket 3.4 20:23:06 10° N 20:27:58 28° NE 20:31:48 14° E
USA 32 4.1 20:23:03 10° S 20:28:11 62° E 20:33:22 10° NNE
USA 276 2.1 20:25:04 10° WNW 20:28:15 76° NNE 20:30:11 22° ESE
X-37B 1.0 20:25:49 10° W 20:28:51 45° SSW 20:30:22 24° SE
Meteor 1-18 Rocket 4.4 20:24:10 10° N 20:29:38 53° ENE 20:33:52 17° SSE
Terra 3.6 20:27:56 12° E 20:30:19 17° ENE 20:33:23 10° NNE
ATLAS 3B R/B 3.5 20:26:02 10° SSE 20:31:19 26° ESE 20:36:37 10° ENE
IGS 5A 4.0 20:29:39 19° SE 20:32:12 42° ENE 20:36:08 10° N
Cosmos 1238 Rocket 2.2 20:30:32 18° SSE 20:32:29 50° E 20:35:27 10° NNE
USA 234 4.0 20:29:28 10° E 20:35:39 46° NNE 20:41:50 10° NW
Cosmos 468 Rocket 4.0 20:30:27 10° NNW 20:35:47 76° ENE 20:39:42 18° SSE
CZ-2C R/B 3.8 20:31:43 10° NNE 20:36:19 80° WNW 20:40:47 10° SSW
Cosmos 1934 Rocket 4.2 20:30:19 10° SSW 20:36:41 78° W 20:43:05 10° N
Cosmos 1980 Rocket 3.2 20:31:41 10° NW 20:37:02 44° WSW 20:42:20 10° S
Cosmos 44 3.6 20:32:27 10° NNW 20:37:18 57° NE 20:40:36 21° ESE
Lacrosse 5 1.9 20:33:25 10° NW 20:38:29 73° SW 20:41:50 21° SE
Resurs 01 Rocket 1.7 20:34:56 11° S 20:39:07 77° WSW 20:43:35 10° NNW
Cosmos 1602 3.8 20:37:46 14° S 20:40:56 57° E 20:44:49 10° NNE
GP-B 3.0 20:40:15 10° N 20:44:43 81° E 20:48:37 13° S
SPOT 3 Rocket 4.3 20:42:04 10° S 20:47:07 51° W 20:52:12 10° NNW
Cosmos 1933 Rocket 3.5 20:43:01 10° S 20:47:24 73° E 20:51:52 10° NNE
Cosmos 405 Rocket 2.6 20:50:04 10° SSW 20:53:45 85° W 20:57:33 10° N
Spot 2 Rocket 3.5 20:51:18 22° SSE 20:54:35 72° ENE 20:59:40 10° N
USA 238 DEB 4.0 20:49:12 10° SW 20:55:49 69° NW 21:02:47 10° NE
USA 238 4.0 20:49:18 10° SW 20:55:55 69° NW 21:02:52 10° NE
Meteor 1-20 Rocket 4.5 20:50:33 10° SSW 20:56:23 78° W 21:02:17 10° N
Cosmos 1515 3.6 20:54:19 10° N 20:58:08 67° E 20:59:36 35° SSE
CENTAUR R/B 2.5 20:53:01 10° SW 20:58:58 87° SE 21:06:06 10° NE
Cosmos 1869 Rocket 4.1 20:57:44 30° SE 20:59:08 39° E 21:03:18 10° NNE
Okean 1-7 3.0 20:55:42 10° N 20:59:59 65° ENE 21:01:51 32° SSE
Cosmos 1741 Rocket 3.9 20:57:01 10° SSW 21:02:16 82° ESE 21:07:35 10° NNE
Cosmos 1437 Rocket 2.6 21:02:04 10° N 21:05:52 89° E 21:07:18 37° S
OBJECT-B 3.6 21:04:29 10° SW 21:06:41 17° W 21:08:54 10° NW
Cosmos 1763 Rocket 3.8 21:04:45 10° NNW 21:10:02 66° WSW 21:13:14 24° S
Cosmos 1703 Rocket 3.5 21:05:57 10° N 21:10:20 87° W 21:12:21 31° S
H-2A R/B 3.6 21:06:57 10° N 21:11:05 75° WNW 21:14:44 13° SSW
Cosmos 2333 Rocket 3.6 21:07:35 10° N 21:12:29 27° NE 21:15:19 19° E
Cosmos 1570 Rocket 4.0 21:07:10 10° NNW 21:12:32 75° ENE 21:14:58 33° SSE
ATLAS 5 CENTAUR R/B 3.0 21:10:27 10° NNW 21:12:55 33° NE 21:14:58 23° E
Cosmos 2084 Rocket 3.7 21:09:01 10° SW 21:13:12 70° NW 21:17:30 10° NE
FAST 4.5 21:12:55 10° N 21:15:32 80° W 21:15:48 69° SSW
Landsat 7 4.0 21:15:20 26° S 21:17:59 70° WSW 21:22:45 10° NNW
SWARM C 4.5 21:15:16 10° N 21:18:36 63° E 21:18:41 63° E
SWARM A 4.1 21:15:21 10° N 21:18:41 71° E 21:18:54 68° ESE
SPOT 5 2.8 21:17:39 41° ESE 21:18:51 55° ENE 21:23:12 10° N
Meteor 1-5 Rocket 4.5 21:18:35 30° SSE 21:21:24 56° E 21:27:09 10° NNE
Cosmos 2208 Rocket 3.9 21:18:46 10° NNW 21:24:03 78° ENE 21:25:57 40° SSE
ERBS 4.5 21:26:19 10° NNW 21:28:51 20° NNE 21:30:13 16° NE
Cosmos 1733 Rocket 4.3 21:29:41 26° ENE 21:29:41 26° ENE 21:32:56 10° NNE
Meteor 1-11 Rocket 4.1 21:31:46 39° SE 21:33:11 46° E 21:38:41 10° NNE
Lacrosse 4 Rocket 2.5 21:37:37 31° ENE 21:37:37 31° ENE 21:40:14 10° NE
SL-27 R/B 3.8 21:37:55 16° SW 21:40:08 36° WNW 21:43:14 10° N
Cosmos 2100 Rocket 3.9 21:36:57 27° S 21:40:28 87° E 21:46:40 10° N
SL-4 R/B 2.8 21:38:10 10° WNW 21:41:52 42° N 21:42:58 32° NE
Meteor 2-4 Rocket 3.8 21:36:48 10° NNW 21:42:24 72° W 21:44:40 36° S
Cosmos 2219 Rocket 3.1 21:37:12 10° NNW 21:42:30 37° NE 21:44:23 29° E
Cosmos 540 Rocket 3.6 21:37:37 10° NNW 21:42:46 66° WSW 21:44:28 41° S
USA 267 3.1 21:36:12 10° NE 21:42:46 74° SE 21:49:18 10° SW
Cosmos 2173 Rocket 3.9 21:41:11 30° S 21:44:27 87° E 21:50:36 10° N
SL-16 R/B 3.1 21:40:28 10° NW 21:45:47 42° WSW 21:48:19 27° SSW
Cosmos 1242 Rocket 3.5 21:48:03 10° N 21:50:53 37° NE 21:50:53 37° NE
SAR-Lupe-2 3.7 21:50:36 10° N 21:54:04 73° NW 21:54:04 73° NW
Cosmos 2322 3.8 21:50:25 10° NNW 21:56:04 62° ENE 21:57:25 48° ESE
Cosmos 1725 Rocket 4.0 21:55:18 46° SSE 21:57:04 63° E 22:03:18 10° NNE
Cosmos 1459 Rocket 4.1 21:53:46 28° SSW 21:57:21 78° W 22:03:46 10° N
ERS-1 Rocket 3.4 21:56:14 40° SSW 21:57:48 57° W 22:02:46 10° NNW
Cosmos 1833 4.1 21:58:11 46° S 21:59:54 74° ESE 22:05:35 10° NNE
Cosmos 1500 4.2 22:00:27 37° WSW 22:01:11 42° WNW 22:04:46 10° N
SL-08 R/B 4.4 21:59:40 49° SSE 22:01:16 69° E 22:07:21 10° NNE
Cosmos 2346 Rocket 4.3 21:55:41 10° N 22:01:46 87° E 22:03:31 49° SSE
Meteor 1-13 Rocket 4.1 21:56:24 10° NNW 22:01:56 79° W 22:03:24 51° S
Cosmos 1536 3.2 22:03:04 54° NE 22:03:04 54° NE 22:06:21 10° NNE
Cosmos 2322 Rocket 3.2 21:57:47 10° NW 22:03:01 38° WSW 22:05:04 28° SSW
Cosmos 2016 Rocket 3.9 22:02:20 42° S 22:04:42 85° E 22:11:07 10° N
Cosmos 1378 Rocket 4.4 22:00:58 10° N 22:04:52 39° ENE 22:04:52 39° ENE
Cosmos 2221 Rocket 3.5 22:00:44 10° NNW 22:05:15 79° W 22:05:37 72° SSW
Terra 1.9 22:06:49 59° SSW 22:07:32 70° WSW 22:12:19 10° NNW
Okean 3 3.8 22:04:02 10° NNW 22:08:16 57° W 22:08:38 55° WSW
Cosmos 841 Rocket 4.5 22:03:40 10° NW 22:08:31 39° WSW 22:10:01 32° SW
COSMOS 2487 3.9 22:12:29 31° NNE 22:12:29 31° NNE 22:14:25 10° NNE
Cosmos 2333 4.2 22:05:11 10° NNW 22:11:01 80° ENE 22:12:06 60° SE
Cosmos 1666 3.1 22:12:27 59° NNW 22:12:27 59° NNW 22:15:38 10° N
Cosmos 2360 Rocket 2.5 22:06:47 10° NW 22:12:20 58° WSW 22:13:33 47° SSW
USA 234 3.1 22:16:21 48° SE 22:18:22 86° SW 22:24:58 10° NW
Iridium 4 Rocket 3.6 22:18:30 47° WSW 22:18:53 49° W 22:22:57 10° N
Cosmos 1864 Rocket 4.4 22:17:15 49° S 22:19:04 89° W 22:25:24 10° N
Lacrosse 5 4.0 22:17:58 10° W 22:20:40 15° WSW 22:21:01 14° SW
ATLAS 3B R/B 2.7 22:14:49 10° SW 22:21:24 73° NW 22:28:05 10° NE
Cosmos 1378 4.3 22:18:43 10° N 22:21:16 37° NNE 22:21:16 37° NNE
MOS 1-B Rocket 3.9 22:17:23 10° NNE 22:22:55 57° ESE 22:23:10 57° ESE
Cosmos 2297 Rocket 4.2 22:32:12 14° ENE 22:32:12 14° ENE 22:33:42 10° ENE
Cosmos 1743 4.1 22:35:21 33° NNE 22:35:21 33° NNE 22:37:39 10° NNE
Cosmos 2233 Rocket 3.9 22:34:08 63° SSE 22:35:11 78° E 22:41:32 10° N
Thor Agena Rocket 4.2 22:30:56 10° NNE 22:35:03 42° ENE 22:35:03 42° ENE
Cosmos 2061 Rocket 4.4 22:35:41 36° SW 22:38:07 57° WNW 22:44:14 10° N
COSMOS 2428 2.6 22:33:31 10° NNW 22:39:18 82° ENE 22:39:48 74° ESE
Cosmos 44 Rocket 3.3 22:38:08 10° NW 22:42:56 82° NW 22:42:56 82° NW
Cosmos 2237 Rocket 3.0 22:38:17 10° NNW 22:43:35 39° NE 22:44:34 36° ENE
Cosmos 1271 Rocket 3.9 22:41:57 10° N 22:44:31 41° N 22:44:31 41° N
CENTAUR R/B 4.4 22:44:53 10° W 22:50:36 32° NNW 22:57:12 10° NE
NOSS 0 Rocket 4.0 22:44:39 10° NNW 22:50:53 65° ENE 22:51:50 57° E
Cosmos 1674 Rocket 4.2 22:47:22 10° NNW 22:51:00 50° WNW 22:51:00 50° WNW
Cosmos 2333 Rocket 2.3 22:51:29 10° NNW 22:57:11 62° WSW 22:57:19 62° WSW
Cosmos 1503 Rocket 4.1 22:58:15 74° ENE 22:58:15 74° ENE 23:03:12 10° NNE
Geosat 4.0 22:58:12 73° NE 22:58:12 73° NE 23:03:06 10° NNW
Cosmos 1486 Rocket 4.4 23:02:24 51° W 23:03:04 56° WNW 23:08:12 10° NNE
Cosmos 1733 Rocket 4.5 23:06:45 32° WNW 23:06:55 32° WNW 23:10:55 10° N
Meteor 2-11 Rocket 4.3 23:06:27 76° SSW 23:06:58 85° W 23:13:07 10° N
Lacrosse 4 Rocket 3.4 23:13:52 23° WNW 23:15:05 26° NW 23:18:38 10° NNE
ALOS 2 3.4 23:17:00 50° N 23:17:00 50° N 23:20:20 10° N
Cosmos 968 Rocket 4.1 23:17:23 46° W 23:17:55 48° WNW 23:22:55 10° NNE
Cosmos 773 Rocket 4.2 23:12:58 10° NNW 23:17:38 65° NNE 23:17:38 65° NNE
Cosmos 2034 Rocket 4.4 23:19:27 49° E 23:19:30 49° E 23:25:33 10° NNE
Cosmos 2227 Rocket 3.4 23:21:59 30° ENE 23:21:59 30° ENE 23:25:39 10° NE
Cosmos 1072 Rocket 4.3 23:20:38 73° E 23:20:41 73° E 23:26:47 10° NNE
SL-4 R/B 4.5 23:17:59 10° WNW 23:18:33 14° WNW 23:18:33 14° WNW
Cosmos 1891 Rocket 4.4 23:21:57 72° ESE 23:22:15 74° E 23:28:38 10° NNE
USA 267 4.0 23:19:20 10° NE 23:25:37 51° NNW 23:31:52 10° W
Cosmos 2219 Rocket 3.0 23:21:12 10° NW 23:26:05 40° W 23:26:05 40° W
Cosmos 1538 Rocket 4.3 23:30:54 10° NNW 23:35:35 60° NE 23:35:35 60° NE
Cosmos 1607 4.2 23:39:54 10° NNW 23:46:20 65° NE 23:47:26 56° E
